Springfield, VT

6:21 PM EST on December 06, 2019 (GMT -0500)
Hartness State

Weather History for KVSF - November, 2019

Change the Weather History Date:

Thursday, November 14, 2019

  Actual Average Record
Temperature  
Mean Temperature 20 °F 38 °F  
Max Temperature 31 °F 47 °F 62 °F (2016)
Min Temperature 10 °F 29 °F 14 °F (1996)
Degree Days  
Heating Degree Days 44 27  
Month to date heating degree days 443 348  
Since 1 July heating degree days 1135 1157  
Cooling Degree Days 0 0  
Month to date cooling degree days 0 0  
Year to date cooling degree days 409 345  
Moisture  
Dew Point 15 °F    
Average Humidity 71    
Maximum Humidity 88    
Minimum Humidity 53    
Precipitation  
Precipitation T in 0.12 in 0.82 in (2006)
Month to date precipitation 0.63 1.86  
Year to date precipitation 30.71 38.41  
Sea Level Pressure  
Sea Level Pressure 30.37 in    
Wind  
Wind Speed 2 mph ()    
Max Wind Speed 12 mph    
Max Gust Speed 17 mph    
Visibility 9.7 miles    
Events Snow    
T = Trace of Precipitation, MM = Missing Value Source: Averaged Metar Reports

Daily Weather History Graph

Daily Weather History Graph

Search for Another Location

Airport or City:

Astronomy

Nov. 14, 2019 Rise Set
Actual Time 6:41 AM EST 4:26 PM EST
Civil Twilight 6:11 AM EST 4:57 PM EST
Nautical Twilight 5:36 AM EST 5:31 PM EST
Astronomical Twilight 5:02 AM EST 6:05 PM EST
Moon 6:08 PM EST (11/14) 8:36 AM EST (11/14)
Length of Visible Light 10h 46m
Length of Day
9h 45m
Waning Gibbous, 95% of the Moon is Illuminated
Nov 14
Waning Gibbous
Nov 19
Last Quarter
Nov 26
New
Dec 4
First Quarter
Dec 12
Full

Hourly Weather History & Observations

Time (EST) Temp. Windchill Dew Point Humidity Pressure Visibility Wind Dir Wind Speed Gust Speed Precip Events Conditions
1:54 AM 15.1 °F - 10.0 °F 80% 30.48 in 10.0 mi Calm Calm - N/A   Overcast
2:54 AM 15.1 °F - 9.0 °F 77% 30.47 in 10.0 mi Calm Calm - N/A   Overcast
3:54 AM 15.1 °F - 10.0 °F 80% 30.47 in 10.0 mi Calm Calm - N/A   Partly Cloudy
4:54 AM 12.9 °F - 10.0 °F 88% 30.47 in 10.0 mi Calm Calm - N/A   Clear
5:54 AM 10.9 °F 4.7 °F 8.1 °F 88% 30.46 in 10.0 mi West 3.5 mph - N/A   Partly Cloudy
6:54 AM 12.9 °F - 10.0 °F 88% 30.47 in 10.0 mi Calm Calm - N/A   Mostly Cloudy
7:54 AM 15.1 °F - 10.9 °F 84% 30.48 in 10.0 mi Calm Calm - N/A   Overcast
8:54 AM 18.0 °F - 12.0 °F 78% 30.48 in 10.0 mi Calm Calm - N/A   Overcast
9:54 AM 21.0 °F 13.4 °F 12.0 °F 68% 30.46 in 10.0 mi South 5.8 mph - N/A   Overcast
10:54 AM 23.0 °F 17.0 °F 10.9 °F 60% 30.44 in 10.0 mi SE 4.6 mph - N/A   Overcast
11:54 AM 25.0 °F 18.1 °F 10.9 °F 55% 30.40 in 10.0 mi SE 5.8 mph - N/A   Overcast
12:54 PM 27.0 °F 18.0 °F 12.0 °F 53% 30.38 in 10.0 mi SE 9.2 mph - N/A   Overcast
1:54 PM 28.9 °F 20.4 °F 17.1 °F 61% 30.36 in 9.0 mi South 9.2 mph - N/A   Overcast
2:04 PM 28.9 °F 23.9 °F 18.0 °F 64% 30.32 in 5.0 mi South 4.6 mph - 0.00 in Snow Light Snow
2:26 PM 28.9 °F 23.9 °F 16.0 °F 58% 30.31 in 10.0 mi SE 4.6 mph - 0.00 in   Overcast
2:54 PM 30.0 °F 22.4 °F 17.1 °F 59% 30.34 in 10.0 mi SSE 8.1 mph - 0.00 in   Overcast
3:54 PM 30.0 °F 24.1 °F 18.0 °F 61% 30.33 in 10.0 mi SSE 5.8 mph - N/A   Overcast
4:54 PM 30.0 °F 25.2 °F 19.0 °F 64% 30.31 in 10.0 mi South 4.6 mph - N/A   Overcast
5:54 PM 30.9 °F - 19.0 °F 61% 30.31 in 10.0 mi Calm Calm - N/A   Overcast
6:54 PM 30.0 °F - 19.9 °F 66% 30.29 in 10.0 mi Calm Calm - N/A   Mostly Cloudy
7:54 PM 28.0 °F - 21.0 °F 75% 30.29 in 10.0 mi Calm Calm - N/A   Mostly Cloudy
8:54 PM 28.0 °F - 21.0 °F 75% 30.28 in 10.0 mi Calm Calm - N/A   Overcast
9:54 PM 28.0 °F - 21.0 °F 75% 30.27 in 8.0 mi Calm Calm - N/A   Partly Cloudy
10:54 PM 27.0 °F - 21.9 °F 81% 30.26 in 10.0 mi Calm Calm - N/A   Overcast
11:54 PM 27.0 °F - 21.9 °F 81% 30.24 in 10.0 mi Calm Calm - N/A   Overcast